Year,Month,Day,Hour,Minute,Value (Times are PST for windspeed in km/hr)
2023,09,25,00,00,47.20
2023,09,25,00,01,46.90
2023,09,25,00,02,47.40
2023,09,25,00,03,46.50
2023,09,25,00,04,45.70
2023,09,25,00,05,45.90
2023,09,25,00,06,46.30
2023,09,25,00,07,47.60
2023,09,25,00,08,48.20
2023,09,25,00,09,46.90
2023,09,25,00,10,46.30
2023,09,25,00,11,44.30
2023,09,25,00,12,44.60
2023,09,25,00,13,42.80
2023,09,25,00,14,43.70
2023,09,25,00,15,43.90
2023,09,25,00,16,43.20
2023,09,25,00,17,43.30
2023,09,25,00,18,40.20
2023,09,25,00,19,41.90
2023,09,25,00,20,41.70
2023,09,25,00,21,41.90
2023,09,25,00,22,42.00
2023,09,25,00,23,47.60
2023,09,25,00,24,41.70
2023,09,25,00,25,40.20
2023,09,25,00,26,43.30
2023,09,25,00,27,41.30
2023,09,25,00,28,42.00
2023,09,25,00,29,42.60
2023,09,25,00,30,41.70
2023,09,25,00,32,43.70
2023,09,25,00,33,44.40
2023,09,25,00,34,43.30
2023,09,25,00,35,45.70
2023,09,25,00,36,47.80
2023,09,25,00,37,48.00
2023,09,25,00,38,46.50
2023,09,25,00,39,45.20
2023,09,25,00,40,42.00
2023,09,25,00,41,51.70
2023,09,25,00,42,51.30
2023,09,25,00,43,41.30
2023,09,25,00,44,45.90
2023,09,25,00,45,50.70
2023,09,25,00,46,50.00
2023,09,25,00,47,51.50
2023,09,25,00,48,54.10
2023,09,25,00,49,45.90
2023,09,25,00,50,38.20
2023,09,25,00,51,52.20
2023,09,25,00,52,61.10
2023,09,25,00,53,40.90
2023,09,25,00,54,43.20
2023,09,25,00,55,54.80
2023,09,25,00,56,46.50
2023,09,25,00,58,45.60
2023,09,25,00,59,48.30
2023,09,25,01,01,40.00
2023,09,25,01,02,49.30
2023,09,25,01,03,43.50
2023,09,25,01,04,43.30
2023,09,25,01,06,39.10
2023,09,25,01,07,39.60
2023,09,25,01,08,46.30
2023,09,25,01,09,44.80
2023,09,25,01,10,38.20
2023,09,25,01,11,42.00
2023,09,25,01,12,38.50
2023,09,25,01,13,41.50
2023,09,25,01,14,37.60
2023,09,25,01,15,41.90
2023,09,25,01,16,44.30
2023,09,25,01,17,40.40
2023,09,25,01,18,35.90
2023,09,25,01,19,37.00
2023,09,25,01,20,35.60
2023,09,25,01,21,35.70
2023,09,25,01,22,39.30
2023,09,25,01,23,36.30
2023,09,25,01,24,35.70
2023,09,25,01,25,34.10
2023,09,25,01,26,33.20
2023,09,25,01,27,31.10
2023,09,25,01,28,29.10
2023,09,25,01,29,32.80
2023,09,25,01,30,34.40
2023,09,25,01,31,32.40
2023,09,25,01,32,32.20
2023,09,25,01,33,33.90
2023,09,25,01,34,38.30
2023,09,25,01,35,37.00
2023,09,25,01,36,40.20
2023,09,25,01,37,35.00
2023,09,25,01,38,35.20
2023,09,25,01,39,32.40
2023,09,25,01,40,33.20
2023,09,25,01,41,30.60
2023,09,25,01,42,38.50
2023,09,25,01,43,34.40
2023,09,25,01,44,31.90
2023,09,25,01,45,29.30
2023,09,25,01,46,31.30
2023,09,25,01,47,32.80
2023,09,25,01,48,33.20
2023,09,25,01,49,35.20
2023,09,25,01,50,40.60
2023,09,25,01,51,42.20
2023,09,25,01,52,45.00
2023,09,25,01,53,46.90
2023,09,25,01,54,41.70
2023,09,25,01,55,42.60
2023,09,25,01,56,37.60
2023,09,25,01,57,39.60
2023,09,25,01,58,36.50
2023,09,25,01,59,41.90
2023,09,25,02,00,40.70
2023,09,25,02,01,38.30
2023,09,25,02,02,38.70
2023,09,25,02,03,43.00
2023,09,25,02,04,43.00
2023,09,25,02,05,44.10
2023,09,25,02,06,42.40
2023,09,25,02,07,45.20
2023,09,25,02,08,45.20
2023,09,25,02,09,49.40
2023,09,25,02,10,47.80
2023,09,25,02,11,44.10
2023,09,25,02,12,43.50
2023,09,25,02,13,46.10
2023,09,25,02,14,47.60
2023,09,25,02,15,50.90
2023,09,25,02,16,52.20
2023,09,25,02,17,47.60
2023,09,25,02,18,51.70
2023,09,25,02,19,45.20
2023,09,25,02,20,47.00
2023,09,25,02,21,49.30
2023,09,25,02,22,44.10
2023,09,25,02,23,43.50
2023,09,25,02,24,43.30
2023,09,25,02,25,43.50
2023,09,25,02,26,43.30
2023,09,25,02,27,42.40
2023,09,25,02,28,40.70
2023,09,25,02,29,47.80
2023,09,25,02,30,42.80
2023,09,25,02,31,44.60
2023,09,25,02,32,38.70
2023,09,25,02,33,38.70
2023,09,25,02,34,44.30
2023,09,25,02,35,44.10
2023,09,25,02,36,38.90
2023,09,25,02,37,39.10
2023,09,25,02,38,40.40
2023,09,25,02,39,45.40
2023,09,25,02,40,41.50
2023,09,25,02,41,41.70
2023,09,25,02,42,39.60
2023,09,25,02,43,43.90
2023,09,25,02,44,53.20
2023,09,25,02,45,49.10
2023,09,25,02,46,48.50
2023,09,25,02,47,41.70
2023,09,25,02,48,38.30
2023,09,25,02,49,44.40
2023,09,25,02,50,47.80
2023,09,25,02,51,52.00
2023,09,25,02,52,49.60
2023,09,25,02,53,48.70
2023,09,25,02,54,47.80
2023,09,25,02,55,45.40
2023,09,25,02,56,45.00
2023,09,25,02,57,50.70
2023,09,25,02,58,47.00
2023,09,25,02,59,42.00
2023,09,25,03,00,44.40
2023,09,25,03,01,44.10
2023,09,25,03,02,49.40
2023,09,25,03,03,43.90
2023,09,25,03,04,41.30
2023,09,25,03,05,47.60
2023,09,25,03,06,46.30
2023,09,25,03,07,49.10
2023,09,25,03,08,50.20
2023,09,25,03,09,56.50
2023,09,25,03,10,57.40
2023,09,25,03,11,48.20
2023,09,25,03,12,51.90
2023,09,25,03,13,51.10
2023,09,25,03,14,48.50
2023,09,25,03,15,48.20
2023,09,25,03,16,48.00
2023,09,25,03,17,46.50
2023,09,25,03,18,46.90
2023,09,25,03,19,48.50
2023,09,25,03,20,45.90
2023,09,25,03,21,45.60
2023,09,25,03,22,50.60
2023,09,25,03,23,46.90
2023,09,25,03,24,47.60
2023,09,25,03,25,45.00
2023,09,25,03,26,49.40
2023,09,25,03,27,46.70
2023,09,25,03,28,44.10
2023,09,25,03,29,50.20
2023,09,25,03,30,50.00
2023,09,25,03,31,47.20
2023,09,25,03,32,45.90
2023,09,25,03,33,49.80
2023,09,25,03,34,43.20
2023,09,25,03,35,45.20
2023,09,25,03,36,46.30
2023,09,25,03,37,50.90
2023,09,25,03,38,49.10
2023,09,25,03,39,48.00
2023,09,25,03,40,47.80
2023,09,25,03,41,44.80
2023,09,25,03,42,45.70
2023,09,25,03,43,47.60
2023,09,25,03,44,45.60
2023,09,25,03,45,43.30
2023,09,25,03,46,45.60
2023,09,25,03,47,45.90
2023,09,25,03,48,49.60
2023,09,25,03,49,48.90
2023,09,25,03,50,45.70
2023,09,25,03,51,43.20
2023,09,25,03,52,42.40
2023,09,25,03,53,47.00
2023,09,25,03,54,42.40
2023,09,25,03,55,47.40
2023,09,25,03,56,47.20
2023,09,25,03,57,49.80
2023,09,25,03,58,47.80
2023,09,25,03,59,50.40
2023,09,25,04,00,46.30
2023,09,25,04,01,44.40
2023,09,25,04,02,45.40
2023,09,25,04,03,43.70
2023,09,25,04,04,48.30
2023,09,25,04,05,49.10
2023,09,25,04,06,45.40
2023,09,25,04,07,42.60
2023,09,25,04,08,45.60
2023,09,25,04,09,44.40
2023,09,25,04,10,42.20
2023,09,25,04,11,44.60
2023,09,25,04,12,44.10
2023,09,25,04,13,39.40
2023,09,25,04,14,43.20
2023,09,25,04,15,43.90
2023,09,25,04,16,39.80
2023,09,25,04,17,38.00
2023,09,25,04,18,45.70
2023,09,25,04,19,40.40
2023,09,25,04,20,41.10
2023,09,25,04,21,39.60
2023,09,25,04,22,39.80
2023,09,25,04,23,42.20
2023,09,25,04,24,43.00
2023,09,25,04,25,42.60
2023,09,25,04,26,41.70
2023,09,25,04,27,45.20
2023,09,25,04,28,39.80
2023,09,25,04,29,44.80
2023,09,25,04,30,44.60
2023,09,25,04,31,45.00
2023,09,25,04,32,43.90
2023,09,25,04,33,43.50
2023,09,25,04,34,46.30
2023,09,25,04,35,42.40
2023,09,25,04,36,42.00
2023,09,25,04,37,41.50
2023,09,25,04,38,41.50
2023,09,25,04,39,40.70
2023,09,25,04,40,44.40
2023,09,25,04,41,45.60
2023,09,25,04,42,46.30
2023,09,25,04,43,44.30
2023,09,25,04,44,50.20
2023,09,25,04,45,43.90
2023,09,25,04,46,41.50
2023,09,25,04,47,42.40
2023,09,25,04,48,41.10
2023,09,25,04,49,47.40
2023,09,25,04,50,48.90
2023,09,25,04,51,47.80
2023,09,25,04,52,49.10
2023,09,25,04,53,48.70
2023,09,25,04,54,48.70
2023,09,25,04,55,52.00
2023,09,25,04,56,51.30
2023,09,25,04,57,47.60
2023,09,25,04,58,46.50
2023,09,25,04,59,51.30
2023,09,25,05,00,48.00
2023,09,25,05,01,47.80
2023,09,25,05,02,53.50
2023,09,25,05,03,49.80
2023,09,25,05,04,50.00
2023,09,25,05,05,52.80
2023,09,25,05,06,51.50
2023,09,25,05,07,46.10
2023,09,25,05,09,48.70
2023,09,25,05,11,45.20
2023,09,25,05,12,51.70
2023,09,25,05,14,49.10
2023,09,25,05,16,48.50
2023,09,25,05,17,51.50
2023,09,25,05,18,51.10
2023,09,25,05,19,51.30
2023,09,25,05,20,51.90
2023,09,25,05,21,49.10
2023,09,25,05,22,52.20
2023,09,25,05,23,50.60
2023,09,25,05,24,50.90
2023,09,25,05,25,52.60
2023,09,25,05,26,50.70
2023,09,25,05,27,52.20
2023,09,25,05,28,50.70
2023,09,25,05,29,47.40
2023,09,25,05,30,50.90
2023,09,25,05,31,45.90
2023,09,25,05,32,47.80
2023,09,25,05,33,48.20
2023,09,25,05,34,47.60
2023,09,25,05,36,50.00
2023,09,25,05,37,49.40
2023,09,25,05,38,48.20
2023,09,25,05,39,46.10
2023,09,25,05,40,46.90
2023,09,25,05,41,46.10
2023,09,25,05,42,43.70
2023,09,25,05,43,47.00
2023,09,25,05,44,50.60
2023,09,25,05,45,48.30
2023,09,25,05,46,45.70
2023,09,25,05,47,48.00
2023,09,25,05,48,50.60
2023,09,25,05,49,50.00
2023,09,25,05,50,54.80
2023,09,25,05,51,55.00
2023,09,25,05,52,51.10
2023,09,25,05,53,49.80
2023,09,25,05,54,43.20
2023,09,25,05,55,44.10
2023,09,25,05,56,49.40
2023,09,25,05,57,44.60
2023,09,25,05,58,49.80
2023,09,25,05,59,49.10
2023,09,25,06,00,49.60
2023,09,25,06,01,51.90
2023,09,25,06,02,48.30
2023,09,25,06,03,51.30
2023,09,25,06,04,51.90
2023,09,25,06,05,49.60
2023,09,25,06,06,53.20
2023,09,25,06,07,50.70
2023,09,25,06,08,50.70
2023,09,25,06,09,53.90
2023,09,25,06,10,50.40
2023,09,25,06,11,51.50
2023,09,25,06,12,49.40
2023,09,25,06,13,51.70
2023,09,25,06,14,52.60
2023,09,25,06,15,47.80
2023,09,25,06,16,49.10
2023,09,25,06,17,50.40
2023,09,25,06,18,48.20
2023,09,25,06,19,45.90
2023,09,25,06,20,47.40
2023,09,25,06,21,50.60
2023,09,25,06,22,48.90
2023,09,25,06,23,50.00
2023,09,25,06,24,50.40
2023,09,25,06,25,48.20
2023,09,25,06,26,50.20
2023,09,25,06,27,54.60
2023,09,25,06,28,52.20
2023,09,25,06,29,53.70
2023,09,25,06,30,54.30
2023,09,25,06,32,52.60
2023,09,25,06,33,53.20
2023,09,25,06,34,51.10
2023,09,25,06,35,53.90
2023,09,25,06,36,53.20
2023,09,25,06,37,51.90
2023,09,25,06,38,57.00
2023,09,25,06,39,53.90
2023,09,25,06,40,51.90
2023,09,25,06,41,50.20
2023,09,25,06,42,51.10
2023,09,25,06,43,52.00
2023,09,25,06,44,51.70
2023,09,25,06,45,55.60
2023,09,25,06,46,52.60
2023,09,25,06,47,52.60
2023,09,25,06,48,53.00
2023,09,25,06,49,53.30
2023,09,25,06,50,49.60
2023,09,25,06,51,52.00
2023,09,25,06,52,52.60
2023,09,25,06,53,52.20
2023,09,25,06,54,49.80
2023,09,25,06,55,52.20
2023,09,25,06,56,50.70
2023,09,25,06,57,52.80
2023,09,25,06,58,48.50
2023,09,25,06,59,48.00
2023,09,25,07,00,46.30
2023,09,25,07,01,46.90
2023,09,25,07,02,47.00
2023,09,25,07,03,46.30
2023,09,25,07,04,48.90
2023,09,25,07,05,49.80
2023,09,25,07,06,48.00
2023,09,25,07,07,47.60
2023,09,25,07,08,48.50
2023,09,25,07,09,49.60
2023,09,25,07,10,50.00
2023,09,25,07,11,50.90
2023,09,25,07,12,43.50
2023,09,25,07,13,47.60
2023,09,25,07,14,53.70
2023,09,25,07,15,54.40
2023,09,25,07,16,50.20
2023,09,25,07,17,41.10
2023,09,25,07,18,41.70
2023,09,25,07,19,46.10
2023,09,25,07,20,44.60
2023,09,25,07,21,43.70
2023,09,25,07,22,48.50
2023,09,25,07,23,46.10
2023,09,25,07,24,48.90
2023,09,25,07,25,43.20
2023,09,25,07,26,45.20
2023,09,25,07,27,42.60
2023,09,25,07,28,43.50
2023,09,25,07,29,45.60
2023,09,25,07,30,45.90
2023,09,25,07,31,43.90
2023,09,25,07,32,48.50
2023,09,25,07,33,48.00
2023,09,25,07,34,49.40
2023,09,25,07,35,49.80
2023,09,25,07,36,48.30
2023,09,25,07,37,44.40
2023,09,25,07,38,49.40
2023,09,25,07,39,50.20
2023,09,25,07,40,48.70
2023,09,25,07,41,45.60
2023,09,25,07,42,49.40
2023,09,25,07,43,45.70
2023,09,25,07,44,45.00
2023,09,25,07,45,50.00
2023,09,25,07,46,47.40
2023,09,25,07,47,44.80
2023,09,25,07,48,50.00
2023,09,25,07,49,43.70
2023,09,25,07,50,45.40
2023,09,25,07,51,46.30
2023,09,25,07,52,42.20
2023,09,25,07,53,41.30
2023,09,25,07,54,40.20
2023,09,25,07,55,43.90
2023,09,25,07,56,47.60
2023,09,25,07,57,41.90
2023,09,25,07,58,46.10
2023,09,25,07,59,45.70
2023,09,25,08,00,47.60
2023,09,25,08,01,54.40
2023,09,25,08,02,50.00
2023,09,25,08,03,41.70
2023,09,25,08,04,43.90
2023,09,25,08,05,48.50
2023,09,25,08,06,48.30
2023,09,25,08,07,42.80
2023,09,25,08,08,47.60
2023,09,25,08,09,48.30
2023,09,25,08,10,49.40
2023,09,25,08,11,48.50
2023,09,25,08,12,47.00
2023,09,25,08,13,50.40
2023,09,25,08,14,48.30
2023,09,25,08,15,46.70
2023,09,25,08,16,46.90
2023,09,25,08,17,46.50
2023,09,25,08,18,47.60
2023,09,25,08,19,50.70
2023,09,25,08,20,50.00
2023,09,25,08,21,47.40
2023,09,25,08,22,49.60
2023,09,25,08,23,48.70
2023,09,25,08,24,51.10
2023,09,25,08,25,46.50
2023,09,25,08,26,51.50
2023,09,25,08,27,49.10
2023,09,25,08,28,51.30
2023,09,25,08,29,51.50
2023,09,25,08,30,53.00
2023,09,25,08,31,48.70
2023,09,25,08,32,54.80
2023,09,25,08,33,53.50
2023,09,25,08,34,53.70
2023,09,25,08,35,59.30
2023,09,25,08,36,57.80
2023,09,25,08,37,50.00
2023,09,25,08,38,55.90
2023,09,25,08,39,55.70
2023,09,25,08,40,59.60
2023,09,25,08,41,50.70
2023,09,25,08,42,55.60
2023,09,25,08,43,48.20
2023,09,25,08,44,48.90
2023,09,25,08,45,49.10
2023,09,25,08,46,53.30
2023,09,25,08,47,51.10
2023,09,25,08,48,49.30
2023,09,25,08,49,47.80
2023,09,25,08,50,47.00
2023,09,25,08,51,43.30
2023,09,25,08,52,42.60
2023,09,25,08,53,39.60
2023,09,25,08,54,43.20
2023,09,25,08,55,44.60
2023,09,25,08,56,47.80
2023,09,25,08,57,45.70
2023,09,25,08,58,48.00
2023,09,25,08,59,46.70
2023,09,25,09,00,45.70
2023,09,25,09,01,48.30
2023,09,25,09,02,47.40
2023,09,25,09,03,40.70
2023,09,25,09,04,45.70
2023,09,25,09,05,44.30
2023,09,25,09,06,44.80
2023,09,25,09,07,39.80
2023,09,25,09,08,47.40
2023,09,25,09,09,40.70
2023,09,25,09,10,41.90
2023,09,25,09,11,44.10
2023,09,25,09,12,42.80
2023,09,25,09,13,42.80
2023,09,25,09,14,42.00
2023,09,25,09,15,44.40
2023,09,25,09,16,42.00
2023,09,25,09,17,45.90
2023,09,25,09,18,45.60
2023,09,25,09,19,45.70
2023,09,25,09,20,43.70
2023,09,25,09,21,47.40
2023,09,25,09,22,50.20
2023,09,25,09,23,45.70
2023,09,25,09,24,50.60
2023,09,25,09,25,43.90
2023,09,25,09,26,47.60
2023,09,25,09,27,49.10
2023,09,25,09,28,46.70
2023,09,25,09,29,47.60
2023,09,25,09,31,44.10
2023,09,25,09,32,46.50
2023,09,25,09,33,46.70
2023,09,25,09,34,43.30
2023,09,25,09,36,41.90
2023,09,25,09,37,41.10
2023,09,25,09,38,43.90
2023,09,25,09,39,44.40
2023,09,25,09,40,46.50
2023,09,25,09,41,41.30
2023,09,25,09,42,42.40
2023,09,25,09,43,43.30
2023,09,25,09,44,47.20
2023,09,25,09,45,45.00
2023,09,25,09,46,43.30
2023,09,25,09,47,47.20
2023,09,25,09,48,47.80
2023,09,25,09,49,46.30
2023,09,25,09,50,43.50
2023,09,25,09,51,46.70
2023,09,25,09,52,46.70
2023,09,25,09,53,46.50
2023,09,25,09,54,48.30
2023,09,25,09,55,51.70
2023,09,25,09,56,50.90
2023,09,25,09,57,48.50
2023,09,25,09,58,48.50
2023,09,25,09,59,49.30
2023,09,25,10,00,49.60
2023,09,25,10,01,48.20
2023,09,25,10,02,46.50
2023,09,25,10,03,46.90
2023,09,25,10,04,49.30
2023,09,25,10,05,46.10
2023,09,25,10,06,44.40
2023,09,25,10,07,48.30
2023,09,25,10,08,45.00
2023,09,25,10,09,44.30
2023,09,25,10,10,48.70
2023,09,25,10,11,47.20
2023,09,25,10,12,49.80
2023,09,25,10,13,48.50
2023,09,25,10,14,45.40
2023,09,25,10,15,45.70
2023,09,25,10,16,46.30
2023,09,25,10,17,47.60
2023,09,25,10,18,47.00
2023,09,25,10,19,48.00
2023,09,25,10,20,49.80
2023,09,25,10,21,46.70
2023,09,25,10,22,49.60
2023,09,25,10,23,46.30
2023,09,25,10,24,44.60
2023,09,25,10,25,41.50
2023,09,25,10,26,41.70
2023,09,25,10,27,40.90
2023,09,25,10,28,37.40
2023,09,25,10,29,40.40
2023,09,25,10,30,42.40
2023,09,25,10,31,43.00
2023,09,25,10,32,40.00
2023,09,25,10,33,38.90
2023,09,25,10,34,39.60
2023,09,25,10,35,42.00
2023,09,25,10,36,40.90
2023,09,25,10,37,39.80
2023,09,25,10,38,38.30
2023,09,25,10,39,39.10
2023,09,25,10,40,39.10
2023,09,25,10,41,39.60
2023,09,25,10,42,35.60
2023,09,25,10,43,36.30
2023,09,25,10,44,37.20
2023,09,25,10,45,36.50
2023,09,25,10,46,34.80
2023,09,25,10,47,38.50
2023,09,25,10,48,36.70
2023,09,25,10,49,36.30
2023,09,25,10,50,36.50
2023,09,25,10,51,34.60
2023,09,25,10,52,36.50
2023,09,25,10,53,39.10
2023,09,25,10,54,33.30
2023,09,25,10,55,38.00
2023,09,25,10,56,34.80
2023,09,25,10,57,35.70
2023,09,25,10,58,36.30
2023,09,25,10,59,31.70
2023,09,25,11,00,32.00
2023,09,25,11,01,33.20
2023,09,25,11,02,35.70
2023,09,25,11,03,34.80
2023,09,25,11,04,36.30
2023,09,25,11,05,32.80
2023,09,25,11,06,35.70
2023,09,25,11,07,38.90
2023,09,25,11,08,37.80
2023,09,25,11,09,33.20
2023,09,25,11,10,34.30
2023,09,25,11,11,39.10
2023,09,25,11,12,37.60
2023,09,25,11,13,39.60
2023,09,25,11,14,39.80
2023,09,25,11,15,35.60
2023,09,25,11,16,33.00
2023,09,25,11,17,35.90
2023,09,25,11,18,40.70
2023,09,25,11,19,37.00
2023,09,25,11,20,32.60
2023,09,25,11,21,33.30
2023,09,25,11,22,36.70
2023,09,25,11,23,37.20
2023,09,25,11,24,29.60
2023,09,25,11,25,30.40
2023,09,25,11,26,28.20
2023,09,25,11,27,29.80
2023,09,25,11,28,27.80
2023,09,25,11,29,30.90
2023,09,25,11,30,28.00
2023,09,25,11,31,30.90
2023,09,25,11,32,32.20
2023,09,25,11,33,30.60
2023,09,25,11,34,33.50
2023,09,25,11,35,33.20
2023,09,25,11,36,29.40
2023,09,25,11,37,25.70
2023,09,25,11,38,24.40
2023,09,25,11,39,31.10
2023,09,25,11,40,34.40
2023,09,25,11,41,29.80
2023,09,25,11,42,32.40
2023,09,25,11,43,42.00
2023,09,25,11,44,34.40
2023,09,25,11,45,25.20
2023,09,25,11,46,21.70
2023,09,25,11,47,30.00
2023,09,25,11,48,36.90
2023,09,25,11,49,36.50
2023,09,25,11,50,29.40
2023,09,25,11,51,27.40
2023,09,25,11,52,25.40
2023,09,25,11,53,33.90
2023,09,25,11,54,31.90
2023,09,25,11,55,30.70
2023,09,25,11,56,33.90
2023,09,25,11,57,27.20
2023,09,25,11,58,26.70
2023,09,25,11,59,30.00
2023,09,25,12,00,29.40
2023,09,25,12,01,26.90
2023,09,25,12,02,25.20
2023,09,25,12,03,27.20
2023,09,25,12,04,25.90
2023,09,25,12,05,24.30
2023,09,25,12,06,25.70
2023,09,25,12,07,28.90
2023,09,25,12,08,29.10
2023,09,25,12,09,25.20
2023,09,25,12,10,24.10
2023,09,25,12,11,22.00
2023,09,25,12,12,22.20
2023,09,25,12,13,24.60
2023,09,25,12,14,27.80
2023,09,25,12,15,25.90
2023,09,25,12,16,26.90
2023,09,25,12,17,25.20
2023,09,25,12,18,24.60
2023,09,25,12,19,24.30
2023,09,25,12,20,25.70
2023,09,25,12,21,27.40
2023,09,25,12,22,26.90
2023,09,25,12,23,26.70
2023,09,25,12,24,25.90
2023,09,25,12,25,26.10
2023,09,25,12,26,24.10
2023,09,25,12,27,24.80
2023,09,25,12,28,22.40
2023,09,25,12,29,22.80
2023,09,25,12,30,21.50
2023,09,25,12,32,24.40
2023,09,25,12,33,24.10
2023,09,25,12,34,27.40
2023,09,25,12,35,28.30
2023,09,25,12,36,27.80
2023,09,25,12,37,31.10
2023,09,25,12,38,27.20
2023,09,25,12,39,28.00
2023,09,25,12,40,29.40
2023,09,25,12,41,28.90
2023,09,25,12,42,26.90
2023,09,25,12,43,27.80
2023,09,25,12,44,27.80
2023,09,25,12,45,26.70
2023,09,25,12,46,26.30
2023,09,25,12,47,25.00
2023,09,25,12,48,25.70
2023,09,25,12,49,26.50
2023,09,25,12,50,25.60
2023,09,25,12,51,24.40
2023,09,25,12,52,26.50
2023,09,25,12,53,24.10
2023,09,25,12,54,20.90
2023,09,25,12,55,19.60
2023,09,25,12,56,20.60
2023,09,25,12,57,16.30
2023,09,25,12,58,11.30
2023,09,25,12,59,10.70
2023,09,25,13,00,9.40
2023,09,25,13,01,8.10
2023,09,25,13,02,6.90
2023,09,25,13,03,6.30
2023,09,25,13,04,3.10
2023,09,25,13,05,6.90
2023,09,25,13,06,3.10
2023,09,25,13,07,0.90
2023,09,25,13,08,4.10
2023,09,25,13,09,3.30
2023,09,25,13,10,5.20
2023,09,25,13,11,5.20
2023,09,25,13,12,3.70
2023,09,25,13,13,6.30
2023,09,25,13,14,5.60
2023,09,25,13,15,5.70
2023,09,25,13,16,5.70
2023,09,25,13,17,8.30
2023,09,25,13,18,6.90
2023,09,25,13,19,4.60
2023,09,25,13,20,4.30
2023,09,25,13,21,7.00
2023,09,25,13,22,2.60
2023,09,25,13,24,8.90
2023,09,25,13,26,7.80
2023,09,25,13,27,7.20
2023,09,25,13,28,8.70
2023,09,25,13,29,7.80
2023,09,25,13,31,7.40
2023,09,25,13,32,9.10
2023,09,25,13,33,9.10
2023,09,25,13,34,10.20
2023,09,25,13,36,4.80
2023,09,25,13,37,6.50
2023,09,25,13,38,7.20
2023,09,25,13,39,7.40
2023,09,25,13,40,6.90
2023,09,25,13,41,6.70
2023,09,25,13,42,7.20
2023,09,25,13,43,8.90
2023,09,25,13,44,6.30
2023,09,25,13,45,7.20
2023,09,25,13,46,7.80
2023,09,25,13,47,6.10
2023,09,25,13,48,6.70
2023,09,25,13,49,6.30
2023,09,25,13,50,5.90
2023,09,25,13,51,5.90
2023,09,25,13,52,5.40
2023,09,25,13,53,5.00
2023,09,25,13,54,4.80
2023,09,25,13,55,5.00
2023,09,25,13,56,5.70
2023,09,25,13,57,3.70
2023,09,25,13,58,3.10
2023,09,25,13,59,2.40
2023,09,25,14,00,4.40
2023,09,25,14,01,4.40
2023,09,25,14,02,2.00
2023,09,25,14,03,2.80
2023,09,25,14,04,2.60
2023,09,25,14,05,4.10
2023,09,25,14,06,3.30
2023,09,25,14,07,5.00
2023,09,25,14,08,2.80
2023,09,25,14,09,3.90
2023,09,25,14,10,4.40
2023,09,25,14,11,3.10
2023,09,25,14,12,3.30
2023,09,25,14,13,2.80
2023,09,25,14,14,3.50
2023,09,25,14,15,4.30
2023,09,25,14,16,2.80
2023,09,25,14,17,2.80
2023,09,25,14,18,2.40
2023,09,25,14,19,4.40
2023,09,25,14,20,5.00
2023,09,25,14,21,5.00
2023,09,25,14,22,5.00
2023,09,25,14,23,6.10
2023,09,25,14,24,3.10
2023,09,25,14,25,1.70
2023,09,25,14,26,0.60
2023,09,25,14,27,0.70
2023,09,25,14,28,1.10
2023,09,25,14,29,3.10
2023,09,25,14,30,4.40
2023,09,25,14,31,4.40
2023,09,25,14,32,5.20
2023,09,25,14,33,5.20
2023,09,25,14,34,6.50
2023,09,25,14,35,5.90
2023,09,25,14,36,5.20
2023,09,25,14,37,4.60
2023,09,25,14,38,8.00
2023,09,25,14,39,9.10
2023,09,25,14,40,9.60
2023,09,25,14,41,10.70
2023,09,25,14,42,9.10
2023,09,25,14,43,8.30
2023,09,25,14,44,8.00
2023,09,25,14,45,6.90
2023,09,25,14,46,7.20
2023,09,25,14,47,8.50
2023,09,25,14,48,7.40
2023,09,25,14,49,7.20
2023,09,25,14,50,7.20
2023,09,25,14,51,10.70
2023,09,25,14,52,13.10
2023,09,25,14,53,14.40
2023,09,25,14,54,12.20
2023,09,25,14,55,12.40
2023,09,25,14,56,14.10
2023,09,25,14,57,15.00
2023,09,25,14,58,13.50
2023,09,25,14,59,15.40
2023,09,25,15,00,15.90
2023,09,25,15,01,14.40
2023,09,25,15,02,14.30
2023,09,25,15,03,16.30
2023,09,25,15,04,17.20
2023,09,25,15,05,15.20
2023,09,25,15,06,16.30
2023,09,25,15,07,18.50
2023,09,25,15,08,18.00
2023,09,25,15,09,18.30
2023,09,25,15,10,18.50
2023,09,25,15,11,18.30
2023,09,25,15,12,16.30
2023,09,25,15,13,15.60
2023,09,25,15,14,11.10
2023,09,25,15,15,6.90
2023,09,25,15,16,6.30
2023,09,25,15,17,7.40
2023,09,25,15,18,7.40
2023,09,25,15,19,5.90
2023,09,25,15,20,6.50
2023,09,25,15,21,8.30
2023,09,25,15,22,6.10
2023,09,25,15,23,3.30
2023,09,25,15,24,5.20
2023,09,25,15,25,3.70
2023,09,25,15,26,3.50
2023,09,25,15,27,4.10
2023,09,25,15,28,3.30
2023,09,25,15,29,5.70
2023,09,25,15,30,5.00
2023,09,25,15,31,7.00
2023,09,25,15,32,5.00
2023,09,25,15,33,7.60
2023,09,25,15,34,8.90
2023,09,25,15,35,8.90
2023,09,25,15,36,8.70
2023,09,25,15,37,8.00
2023,09,25,15,38,5.90
2023,09,25,15,39,4.10
2023,09,25,15,40,4.10
2023,09,25,15,41,2.40
2023,09,25,15,42,0.90
2023,09,25,15,43,3.30
2023,09,25,15,44,5.00
2023,09,25,15,45,4.30
2023,09,25,15,46,2.40
2023,09,25,15,47,6.30
2023,09,25,15,48,6.10
2023,09,25,15,49,3.70
2023,09,25,15,50,5.40
2023,09,25,15,51,6.30
2023,09,25,15,52,5.60
2023,09,25,15,53,6.10
2023,09,25,15,54,5.60
2023,09,25,15,55,4.60
2023,09,25,15,56,3.00
2023,09,25,15,57,1.70
2023,09,25,15,58,4.10
2023,09,25,15,59,2.00
2023,09,25,16,00,3.10
2023,09,25,16,01,1.30
2023,09,25,16,02,0.20
2023,09,25,16,03,0.60
2023,09,25,16,04,1.30
2023,09,25,16,05,0.00
2023,09,25,16,06,0.00
2023,09,25,16,07,0.00
2023,09,25,16,08,0.00
2023,09,25,16,09,0.00
2023,09,25,16,10,0.20
2023,09,25,16,11,0.40
2023,09,25,16,12,0.40
2023,09,25,16,13,1.90
2023,09,25,16,14,2.40
2023,09,25,16,15,2.80
2023,09,25,16,16,3.90
2023,09,25,16,17,3.90
2023,09,25,16,18,3.30
2023,09,25,16,19,3.00
2023,09,25,16,20,4.30
2023,09,25,16,21,3.30
2023,09,25,16,22,3.30
2023,09,25,16,23,4.60
2023,09,25,16,24,1.30
2023,09,25,16,25,4.30
2023,09,25,16,26,5.60
2023,09,25,16,27,5.20
2023,09,25,16,28,4.10
2023,09,25,16,29,3.70
2023,09,25,16,30,5.70
2023,09,25,16,31,4.30
2023,09,25,16,32,0.90
2023,09,25,16,33,4.60
2023,09,25,16,34,1.70
2023,09,25,16,35,0.40
2023,09,25,16,36,3.50
2023,09,25,16,37,4.80
2023,09,25,16,38,7.80
2023,09,25,16,39,4.30
2023,09,25,16,40,6.30
2023,09,25,16,41,5.70
2023,09,25,16,42,5.40
2023,09,25,16,43,4.10
2023,09,25,16,44,3.90
2023,09,25,16,45,3.90
2023,09,25,16,46,3.30
2023,09,25,16,47,0.20
2023,09,25,16,48,0.00
2023,09,25,16,49,0.00
2023,09,25,16,50,0.00
2023,09,25,16,51,0.00
2023,09,25,16,52,0.00
2023,09,25,16,53,0.00
2023,09,25,16,54,4.10
2023,09,25,16,55,4.60
2023,09,25,16,56,4.10
2023,09,25,16,57,4.10
2023,09,25,16,58,3.90
2023,09,25,16,59,3.70
2023,09,25,17,00,2.00
2023,09,25,17,01,1.90
2023,09,25,17,02,0.20
2023,09,25,17,03,0.00
2023,09,25,17,04,1.90
2023,09,25,17,05,1.70
2023,09,25,17,06,2.80
2023,09,25,17,07,6.10
2023,09,25,17,08,7.80
2023,09,25,17,09,8.30
2023,09,25,17,10,5.20
2023,09,25,17,11,2.40
2023,09,25,17,13,3.50
2023,09,25,17,14,2.00
2023,09,25,17,15,3.30
2023,09,25,17,16,3.00
2023,09,25,17,18,3.00
2023,09,25,17,19,2.00
2023,09,25,17,21,5.00
2023,09,25,17,22,5.20
2023,09,25,17,23,5.00
2023,09,25,17,24,4.30
2023,09,25,17,26,4.10
2023,09,25,17,27,2.00
2023,09,25,17,28,3.90
2023,09,25,17,29,4.80
2023,09,25,17,30,2.60
2023,09,25,17,31,1.90
2023,09,25,17,32,3.70
2023,09,25,17,33,3.30
2023,09,25,17,34,1.90
2023,09,25,17,36,4.40
2023,09,25,17,37,5.70
2023,09,25,17,38,8.30
2023,09,25,17,39,13.70
2023,09,25,17,40,7.80
2023,09,25,17,41,7.40
2023,09,25,17,42,5.60
2023,09,25,17,43,3.70
2023,09,25,17,44,3.10
2023,09,25,17,45,4.10
2023,09,25,17,46,2.40
2023,09,25,17,47,1.90
2023,09,25,17,48,0.20
2023,09,25,17,49,3.30
2023,09,25,17,50,2.00
2023,09,25,17,51,4.10
2023,09,25,17,52,1.50